Location: Pl�tzky
(52.0521°N, 11.8020°E)
Time: 08:45:47
(UTC+00:00)

Cosmos 1656 - Pass Details

Date: 22 November 2019
Orbit: 800 x 848 km, 71.1° (Epoch: 15 December)

Event Time Altitude Azimuth Distance (km) Brightness Sun altitude
Rises 15:39:43 0° 195° (SSW) 3,342 7.5 -4.4°
Reaches altitude 10° 15:42:11 10° 192° (SSW) 2,406 6.7 -4.7°
Maximum altitude 15:47:34 59° 114° (ESE) 936 3.8 -5.5°
Drops below altitude 10° 15:52:56 10° 36° (NE) 2,396 5.5 -6.2°
Enters shadow 15:54:36 - 34° (NNE) 3,031 6.1 -6.4°
